Location: Ajisawe
(8.4333°N, 4.3833°E)
Time: 09:50:36
(UTC+00:00)

Vanguard 2 Rocket - Pass Details

Date: 24 April 2021
Orbit: 553 x 3326 km, 32.9° (Epoch: 07 May)

Event Time Altitude Azimuth Distance (km) Brightness Sun altitude
Rises 15:03:45 0° 301° (WNW) 6,921 12.2 40.0°
Reaches altitude 10° 15:09:11 10° 310° (NW) 6,122 12.0 38.6°
Maximum altitude 15:26:28 33° 9° (N) 4,518 10.7 34.4°
Drops below altitude 10° 15:41:39 10° 68° (ENE) 5,437 10.5 30.7°
Sets 15:46:02 0° 77° (ENE) 6,099 10.6 29.7°
